Location: Newark
(58.9775°N, 38.3978°E)
Time: 19:13:42
(UTC+00:00)

N. Korean satellite - Visible Passes

Search period start: 07 December 2019 00:00
Search period end: 17 December 2019 00:00
Orbit: 456 x 506 km, 97.2° (Epoch: 06 December)

Date Brightness Start Highest point End Pass type
(mag) Time Alt. Az. Time Alt. Az. Time Alt. Az.
07 Dec 8.0 03:07:10 10° NNE 03:10:37 40° E 03:13:59 10° S visible
07 Dec 7.4 04:40:46 10° N 04:43:56 29° WNW 04:47:02 10° WSW visible
07 Dec 6.6 13:50:55 10° SSE 13:54:36 64° ENE 13:58:16 10° N visible
07 Dec 9.6 15:25:38 10° SW 15:28:22 19° W 15:31:05 10° NW visible
08 Dec 9.0 02:42:01 10° NE 02:45:00 24° E 02:47:56 10° SSE visible
08 Dec 6.8 04:15:08 10° N 04:18:37 46° WNW 04:22:01 10° SW visible
08 Dec 7.1 13:25:47 10° SE 13:29:14 38° ENE 13:32:42 10° N visible
08 Dec 8.7 14:59:24 10° SSW 15:02:43 30° W 15:06:03 10° NNW visible
09 Dec 9.7 02:17:12 10° NE 02:19:19 15° E 02:21:23 10° ESE visible
09 Dec 6.4 03:49:36 10° NNE 03:53:14 80° WNW 03:56:46 10° SSW visible
09 Dec 7.6 14:33:31 10° S 14:37:10 51° W 14:40:47 10° NNW visible
10 Dec 7.1 03:24:11 10° NNE 03:27:46 58° ESE 03:31:15 10° S visible
10 Dec 7.8 04:58:05 10° N 05:00:52 21° WNW 05:03:37 10° WSW visible
10 Dec 6.6 14:07:57 10° SSE 14:11:40 88° WSW 14:15:23 10° NNW visible
10 Dec 9.9 15:43:41 10° WSW 15:45:38 14° W 15:47:36 10° NW visible
11 Dec 8.3 02:58:54 10° NNE 03:02:12 33° E 03:05:26 10° SSE visible
11 Dec 7.2 04:32:21 10° N 04:35:36 33° WNW 04:38:47 10° SW visible
11 Dec 6.7 13:42:38 10° SE 13:46:16 54° ENE 13:49:52 10° N visible
11 Dec 9.3 15:17:00 10° SW 15:19:56 22° W 15:22:52 10° NW visible
12 Dec 9.2 02:33:49 10° NE 02:36:33 20° E 02:39:14 10° SE visible
12 Dec 6.6 04:06:45 10° N 04:10:16 54° WNW 04:13:42 10° SSW visible
12 Dec 7.3 13:17:35 10° SE 13:20:55 33° ENE 13:24:14 10° N visible
12 Dec 8.4 14:50:53 10° SSW 14:54:19 35° W 14:57:44 10° NNW visible
13 Dec 9.9 02:09:15 10° ENE 02:10:49 12° E 02:12:22 10° ESE visible
13 Dec 6.5 03:41:15 10° NNE 03:44:51 86° ESE 03:48:21 10° SSW visible
13 Dec 8.1 05:15:30 10° NNW 05:17:46 16° NW 05:20:00 10° W visible
13 Dec 7.2 14:25:06 10° S 14:28:46 61° WSW 14:32:25 10° NNW visible
14 Dec 7.5 03:15:52 10° NNE 03:19:20 48° E 03:22:44 10° S visible
14 Dec 7.6 04:49:37 10° N 04:52:33 24° WNW 04:55:25 10° WSW visible
14 Dec 6.5 13:59:37 10° SSE 14:03:18 78° ENE 14:06:58 10° NNW visible
14 Dec 9.8 15:34:51 10° SW 15:37:10 16° W 15:39:29 10° NW visible
15 Dec 8.6 02:50:38 10° NNE 02:53:44 28° E 02:56:48 10° SSE visible
15 Dec 7.0 04:23:55 10° N 04:27:15 38° WNW 04:30:30 10° SW visible
15 Dec 6.9 13:34:23 10° SE 13:37:54 45° ENE 13:41:25 10° N visible
15 Dec 9.0 15:08:23 10° SSW 15:11:29 25° W 15:14:34 10° NW visible
16 Dec 9.5 02:25:39 10° NE 02:28:04 17° E 02:30:27 10° SE visible
16 Dec 6.4 03:58:20 10° N 04:01:53 65° WNW 04:05:19 10° SSW visible
16 Dec 8.0 14:42:22 10° S 14:45:53 42° W 14:49:22 10° NNW visible
